Flag for Norway Weather past 2 weeks in Brønnøysund, Norway

Now
43 °F

Quite cool.


Feels Like: 41 °F
Forecast: 37 / 43 °F
Wind: 5 mph from Southwest

Location: Bronnoysund / Bronnoy


UV Index: 0 (Low)

Visibility: N/A


Pressure: 30.16 "Hg

Humidity: 83%

Dew point: 38 °F

Location of BrønnøysundLocation

Historic Weather in Brønnøysund

°F

Brønnøysund temperature yesterday

Maximum temperature yesterday: 52 °F (at 7:00 PM)
Minimum temperature yesterday: 39 °F (at 6:00 AM)
Average temperature yesterday: 45 °F

Past Weeks' High & Low Weather Summary

 TemperatureHumidityPressure
High52 °F (Apr 20, 7:00 PM)97% (Apr 19, 12:00 PM)30.32 "Hg (Apr 19, 12:00 PM)
Low33 °F (Apr 15, 8:00 AM)38% (Apr 9, 5:00 PM)28.94 "Hg (Apr 13, 6:00 AM)
Average42 °F76%29.74 "Hg
* Reported Apr 6 6:00 AM — Apr 21 6:00 AM, Brønnøysund, Weather by CustomWeather, © 2014

Note: Actual official high and low records may vary slightly from our data, if they occured in-between our weather recording intervals... More about our weather records

Advertising

Historic Weather Conditions — Data for Previous 24 hours

 ConditionsComfort  
Time TempWeatherWind HumidityBarometerVisibility
6:00 AM
Apr 21
42 °FQuite cool.5 mph88%30.15 "HgN/A
5:00 AM43 °FQuite cool.5 mph84%30.14 "HgN/A
4:00 AM43 °FQuite cool.6 mph85%30.14 "HgN/A
3:00 AM44 °FQuite cool.8 mph80%30.13 "HgN/A
2:00 AM45 °FCool.9 mph79%30.12 "HgN/A
1:00 AM50 °FCool.7 mph58%30.11 "HgN/A
12:00 AM51 °FCool.10 mph58%30.10 "HgN/A
11:00 PM
Apr 20
51 °FCool.8 mph58%30.09 "HgN/A
10:00 PM50 °FCool.9 mph61%30.10 "HgN/A
9:00 PM51 °FCool.8 mph58%30.12 "HgN/A
8:00 PM51 °FCool.5 mph58%30.13 "HgN/A
7:00 PM52 °FCool.2 mph57%30.14 "HgN/A
6:00 PM50 °FCool.6 mph61%30.16 "HgN/A
5:00 PM49 °FCool.3 mph64%30.19 "HgN/A
4:00 PM50 °FCool.5 mph67%30.22 "HgN/A
3:00 PM49 °FCool.5 mph67%30.24 "HgN/A
2:00 PM49 °FCool.3 mph66%30.25 "HgN/A
1:00 PM47 °FCool.2 mph70%30.27 "HgN/A
12:00 PM46 °FCool.3 mph73%30.29 "HgN/A
11:00 AM46 °FCool.5 mph67%30.30 "HgN/A
10:00 AM44 °FQuite cool.3 mph72%30.31 "HgN/A
9:00 AM43 °FQuite cool.3 mph74%30.31 "HgN/A
8:00 AM41 °FQuite cool.3 mph87%30.32 "HgN/A
7:00 AM41 °FQuite cool.2 mph87%30.32 "HgN/A
Weather by CustomWeather, © 2014

See weather overview